CZ-4C R/B (47304 NORAD) Tracking and Keplerian Element Data
This shows tracking and keplerian element data for the satellite.
Feedback or suggestion? Click here.
Element | Value |
Catalog | 47304 |
Name | CZ-4C R/B |
Epoch Orbit | 431 |
Epoch Day | 25.66166505 |
Epoch Year | 2021 |
RAAN | 277.1153 |
Inclination | 98.3193 |
Eccentricity | 0.0115626 |
Argument of Perigee | 310.6292 |
Mean Anonmoly | 48.4912 |
Mean Motion | 14.89140248 |
Decay Rate | 1.51E-06 |
L1 | 1 47304U 20103C 21025.66166505 .00000151 00000-0 21085-4 0 9996 |
L2 | 2 47304 98.3193 277.1153 0115626 310.6292 48.4912 14.89140248 4310 |
Live tracking and technical data element details for CZ-4C R/B (NORAD 47304). CZ-4C R/B can be tracked NOW for your location showing map with azimuth and elevation plus other details from your city location.
Track the satellite on the map from your city or location and see movement details for azimuth, elevation, latitude, longitude, range, height, and movement on the map or in text.
IsCatalogInMostPopularTable: catalog: 47304, numindb: 22
Update: records affected: 1
GetName: 47304 CZ-4C R/B
Hit Count: updated at: Tue, 02 Mar 2021 13:09:40 GMT